Kelowna, British Columbia

12:07 AM PDT on August 17, 2017 (GMT -0700)
Kelowna

Weather History for CYLW - August, 2014

Change the Weather History Date:

Thursday, August 28, 2014

  Actual Average Record
Temperature  
Mean Temperature 68 °F -  
Max Temperature 77 °F 69 °F 91 °F (2002)
Min Temperature 57 °F 42 °F 37 °F (2010)
Cooling Degree Days 2    
Growing Degree Days 18 (Base 50)    
Moisture  
Dew Point 54 °F    
Average Humidity 67    
Maximum Humidity 88    
Minimum Humidity 29    
Precipitation  
Precipitation 0.28 in 0.05 in - ()
Sea Level Pressure  
Sea Level Pressure 29.98 in    
Wind  
Wind Speed 6 mph ()    
Max Wind Speed 23 mph    
Max Gust Speed 24 mph    
Visibility 8.7 miles    
Events Rain , Thunderstorm    
Averages and records for this station are not official NWS values.
T = Trace of Precipitation, MM = Missing Value Source: Averaged Metar Reports

Daily Weather History Graph

Daily Weather History Graph

Search for Another Location

Airport or City:

Trip Planner

Search our weather history database for the weather conditions in past years. The results will help you decide how hot, cold, wet, or windy it might be!

Date:

Astronomy

Aug. 28, 2014 Rise Set
Actual Time 6:06 AM PDT 7:49 PM PDT
Civil Twilight 5:32 AM PDT 8:23 PM PDT
Nautical Twilight 4:50 AM PDT 9:05 PM PDT
Astronomical Twilight 4:04 AM PDT 9:51 PM PDT
Moon 9:25 AM PDT (8/28) 8:52 PM PDT (8/28)
Length of Visible Light 14h 50m
Length of Day
13h 42m
Waxing Crescent, 9% of the Moon is Illuminated
Aug 28
Waxing Crescent
Sep 2
First Quarter
Sep 8
Full
Sep 15
Last Quarter
Sep 23
New

Hourly Weather History & Observations

Time (PDT) Temp. Dew Point Humidity Pressure Visibility Wind Dir Wind Speed Gust Speed Precip Events Conditions
12:00 AM 77.0 °F 42.8 °F 29% 29.89 in 9.0 mi SSE 12.7 mph - N/A   Overcast
1:00 AM 73.4 °F 42.8 °F 33% 29.90 in 9.0 mi Calm Calm - N/A   Partly Cloudy
2:00 AM 69.8 °F 44.6 °F 40% 29.91 in 9.0 mi Variable 3.5 mph - N/A   Clear
3:00 AM 66.2 °F 44.6 °F 46% 29.91 in 9.0 mi Calm Calm - N/A   Clear
4:00 AM 62.6 °F 48.2 °F 59% 29.92 in 9.0 mi SSW 4.6 mph - N/A   Mostly Cloudy
5:00 AM 64 °F 49 °F 49% 29.93 in 10 mi SSW 3.5 mph - -  
5:00 AM 64.4 °F 50.0 °F 59% 29.92 in 9.0 mi Variable 2.3 mph - N/A   Mostly Cloudy
6:00 AM 62.6 °F 51.8 °F 68% 29.93 in 9.0 mi Calm Calm - N/A   Partly Cloudy
7:00 AM 62.6 °F 51.8 °F 68% 29.94 in 9.0 mi Variable 2.3 mph - N/A   Mostly Cloudy
8:00 AM 66.2 °F 53.6 °F 64% 29.95 in 9.0 mi South 3.5 mph - N/A   Mostly Cloudy
9:00 AM 71.6 °F 51.8 °F 50% 29.96 in 9.0 mi North 2.3 mph - N/A   Overcast
9:07 AM 73.4 °F 51.8 °F 47% 29.96 in 9.0 mi NNW 13.8 mph - N/A   Overcast
10:00 AM 69.8 °F 51.8 °F 53% 29.98 in 9.0 mi NNW 20.7 mph - N/A   Mostly Cloudy
11:00 AM 69 °F 54 °F 49% 29.99 in 10 mi North 21.9 mph - -   Overcast
11:00 AM 68.0 °F 53.6 °F 60% 29.99 in 9.0 mi NNW 23.0 mph - N/A   Overcast
11:38 AM 66.2 °F 53.6 °F 64% 30.01 in 9.0 mi NNE 13.8 mph 23.0 mph N/A Rain Light Rain
12:00 PM 64.4 °F 53.6 °F 68% 30.01 in 9.0 mi NNW 3.5 mph - N/A Rain Light Rain
12:17 PM 66.2 °F 53.6 °F 64% 30.01 in 9.0 mi NW 5.8 mph - N/A   Mostly Cloudy
1:00 PM 68.0 °F 53.6 °F 60% 29.99 in 9.0 mi NNW 13.8 mph - N/A   Mostly Cloudy
1:24 PM 66.2 °F 57.2 °F 73% 30.01 in 9.0 mi NNW 11.5 mph 18.4 mph N/A Rain Light Rain
1:29 PM 64.4 °F 55.4 °F 73% 30.01 in 8.0 mi NW 20.7 mph - N/A Rain Heavy Rain
1:31 PM 62.6 °F 55.4 °F 77% 30.02 in 5.0 mi NNW 13.8 mph 24.2 mph N/A Rain Heavy Rain
1:32 PM 62.6 °F 55.4 °F 77% 30.03 in 5.0 mi NNW 12.7 mph 24.2 mph N/A Rain , Thunderstorm Heavy Thunderstorms and Rain
1:36 PM 62.6 °F 55.4 °F 77% 30.03 in 5.0 mi NW 11.5 mph 24.2 mph N/A Rain , Thunderstorm Thunderstorms and Rain
1:40 PM 62.6 °F 55.4 °F 77% 30.03 in 7.0 mi NNW 9.2 mph 17.3 mph N/A Rain , Thunderstorm Heavy Thunderstorms and Rain
1:49 PM 60.8 °F 57.2 °F 88% 30.03 in 8.0 mi NE 3.5 mph - N/A Rain , Thunderstorm Thunderstorms and Rain
1:53 PM 60.8 °F 57.2 °F 88% 30.03 in 8.0 mi ENE 3.5 mph - N/A Rain Rain
2:00 PM 62.6 °F 55.4 °F 77% 30.03 in 9.0 mi NNW 3.5 mph - N/A Rain Light Rain
2:38 PM 62.6 °F 57.2 °F 82% 30.03 in 9.0 mi NNW 6.9 mph - N/A   Overcast
2:52 PM 62.6 °F 57.2 °F 82% 30.04 in 9.0 mi ENE 3.5 mph - N/A Rain Light Rain
3:00 PM 62.6 °F 59.0 °F 88% 30.04 in 9.0 mi SSE 8.1 mph - N/A Rain Light Rain
3:50 PM 66.2 °F 60.8 °F 83% 30.00 in 9.0 mi WNW 9.2 mph - N/A   Mostly Cloudy
4:54 PM 66.2 °F 59.0 °F 78% 30.00 in 9.0 mi East 4.6 mph - N/A Rain Light Rain
5:00 PM 66 °F 58 °F 67% 30.00 in 10 mi East 4.6 mph - - Rain Light Rain
5:00 PM 66.2 °F 57.2 °F 73% 30.00 in 9.0 mi East 3.5 mph - N/A Rain Light Rain
5:07 PM 66.2 °F 53.6 °F 64% 29.99 in 9.0 mi Calm Calm - N/A   Scattered Clouds
6:00 PM 68.0 °F 55.4 °F 64% 29.97 in 9.0 mi Variable 2.3 mph - N/A   Partly Cloudy
7:00 PM 68.0 °F 57.2 °F 68% 29.96 in 9.0 mi Variable 2.3 mph - N/A   Partly Cloudy
8:00 PM 62.6 °F 57.2 °F 82% 29.97 in 9.0 mi Calm Calm - N/A   Clear
9:00 PM 59.0 °F 55.4 °F 88% 29.96 in 9.0 mi NE 3.5 mph - N/A   Clear
11:00 PM 58 °F 54 °F 83% 29.98 in 10 mi ESE 3.5 mph - -  
11:00 PM 57.2 °F 53.6 °F 88% 29.97 in 9.0 mi ESE 4.6 mph - N/A   Clear